This is the latest recevied weather packets stored in our database for station/object ON5MM-5. If no packets are shown the sender has not sent any weather packets the latest 10 day(s).
| Time | Temp. | Humidity | Pressure | Rain* | Wind** | Luminosity | Snow |
|---|---|---|---|---|---|---|---|
| 1777461602 | 16.67° C | 34% | 1025.2 hPa | 0 mm | 2.68 m/s, ° | - | - |
| 1777461303 | 16.67° C | 34% | 1025.3 hPa | 0 mm | 2.68 m/s, ° | - | - |
| 1777461003 | 16.67° C | 33% | 1025.2 hPa | 0 mm | 2.68 m/s, ° | - | - |
| 1777460402 | 16.11° C | 34% | 1025.3 hPa | 0 mm | 2.68 m/s, ° | - | - |
| 1777459203 | 15.56° C | 35% | 1025.4 hPa | 0 mm | 2.24 m/s, ° | - | - |
| 1777458902 | 15.56° C | 35% | 1025.3 hPa | 0 mm | 2.24 m/s, ° | - | - |
| 1777458003 | 15° C | 35% | 1025.4 hPa | 0 mm | 2.68 m/s, ° | - | - |
| 1777457702 | 15° C | 34% | 1025.5 hPa | 0 mm | 3.13 m/s, ° | - | - |
| 1777457402 | 15° C | 34% | 1025.5 hPa | 0 mm | 2.68 m/s, ° | - | - |
| 1777457102 | 15° C | 34% | 1025.4 hPa | 0 mm | 3.13 m/s, ° | - | - |
| 1777455602 | 15° C | 35% | 1025.2 hPa | 0 mm | 2.68 m/s, ° | - | - |
| 1777455302 | 15° C | 35% | 1025.2 hPa | 0 mm | 2.68 m/s, ° | - | - |
| 1777455002 | 15° C | 35% | 1025.2 hPa | 0 mm | 2.24 m/s, ° | - | - |
| 1777454702 | 15° C | 36% | 1025.1 hPa | 0 mm | 2.24 m/s, ° | - | - |
| 1777454402 | 14.44° C | 35% | 1025.2 hPa | 0 mm | 2.68 m/s, ° | - | - |
| 1777454102 | 14.44° C | 34% | 1025.2 hPa | 0 mm | 2.68 m/s, ° | - | - |
| 1777453803 | 14.44° C | 34% | 1025.1 hPa | 0 mm | 3.13 m/s, ° | - | - |
| 1777453503 | 14.44° C | 36% | 1025.1 hPa | 0 mm | 2.24 m/s, ° | - | - |
| 1777453202 | 13.89° C | 35% | 1025.2 hPa | 0 mm | 3.58 m/s, ° | - | - |
| 1777452903 | 14.44° C | 34% | 1025.2 hPa | 0 mm | 3.13 m/s, ° | - | - |
| 1777452003 | 13.89° C | 35% | 1025.2 hPa | 0 mm | 2.68 m/s, ° | - | - |
| 1777451702 | 13.89° C | 34% | 1025.2 hPa | 0 mm | 2.68 m/s, ° | - | - |
| 1777451402 | 13.89° C | 35% | 1025.2 hPa | 0 mm | 2.24 m/s, ° | - | - |
| 1777451102 | 13.89° C | 35% | 1025.2 hPa | 0 mm | 2.68 m/s, ° | - | - |
| 1777450802 | 13.89° C | 35% | 1025.2 hPa | 0 mm | 2.24 m/s, ° | - | - |
* Rain latest hour (hover to see other rain measurements)
** Current wind speed in m/s (hover to see current wind gust speed)